Regional Weather Roundup
Issued by NWS Charleston, SC

Current Version | Previous Version | Graphics & Text | Print | Product List | Glossary Off
Versions: 1 2 3 4 5 6 7 8 9 10 11 12 13 14 15 16 17 18 19 20 21 22 23 24 25 26 27 28 29 30 31 32 33 34 35 36 37 38 39 40 41 42 43 44 45 46 47 48 49 50

000
ASUS42 KCHS 051512
RWRCHS

REGIONAL WEATHER ROUNDUP
NATIONAL WEATHER SERVICE CHARLESTON SC
1100 AM EDT SAT SEP 05 2015

NOTE: "FAIR" INDICATES FEW OR NO CLOUDS BELOW 12,000 FEET WITH NO
SIGNIFICANT WEATHER AND/OR OBSTRUCTIONS TO VISIBILITY.

NOT ALL STATIONS ARE QUALITY CONTROLLED BY THE NATIONAL
WEATHER SERVICE. USE DATA WITH CAUTION...ESPECIALLY
DEWPOINT OBSERVATIONS.

SCZ027-030-031-034>040-042>050-051600-
...SOUTHEAST SOUTH CAROLINA...

CITY           SKY/WX    TMP DP  RH WIND       PRES   REMARKS
N CHARLESTON   MOSUNNY   79  71  76 NE7       30.09R
WATERFRONT PRK   N/A     79  74  85 N7        30.05R
MOUNT PLEASANT FAIR      81  73  78 N7        30.09R
JOHNS ISLAND   FAIR      81  73  78 N8        30.08R
PINOPOLIS        N/A     81  73  78 NE6       30.03R
MONCKS CORNER  CLOUDY    81  72  74 N3        30.09S
SUMMERVILLE    CLOUDY    81  73  78 N7        30.10R
BEAUFORT MCAS  MOSUNNY   81  71  71 NE3       30.09R
BEAUFORT ARPT  FAIR      81  72  74 CALM      30.08R HAZE
HILTON HEAD IS MOSUNNY   81  70  69 N6        30.09S
WALTERBORO     FAIR      82  72  69 N9        30.10R
ALLENDALE      FAIR      81  72  74 VRB5      30.09S

...SOUTHERN MIDLANDS AND PEE DEE...

CITY           SKY/WX    TMP DP  RH WIND       PRES   REMARKS
GEORGETOWN     NOT AVBL
KINGSTREE      NOT AVBL
ORANGEBURG     PTSUNNY   80  71  74 NE9       30.11S
BARNWELL       FAIR      82  72  69 NE10      30.12R
AIKEN          PTSUNNY   77  68  73 NE7       30.16S
MANNING        CLOUDY    77  70  78 N6        30.11S
COLUMBIA       MOSUNNY   82  69  64 NE12      30.12R
SUMTER         MOSUNNY   80  71  73 E12       30.10S
FLORENCE       MOSUNNY   79  71  76 NE12      30.13R
MYRTLE BEACH   MOSUNNY   82  72  69 N9        30.11R
N MYRTLE BEACH SUNNY     82  73  74 N13       30.08S

$$

GAZ063-065-086>088-099>101-113>116-118-119-134>141-150-051600-
...SOUTHEAST GEORGIA...

CITY           SKY/WX    TMP DP  RH WIND       PRES   REMARKS
SAVANNAH ARPT  MOSUNNY   83  69  62 NE6       30.08S
HUNTER AAF     SUNNY     83  75  77 NE6       30.06R HX  91
FORT STEWART   MOSUNNY   83  72  69 NE6       30.07R
STATESBORO     PTSUNNY   77  76  98 NE3       30.10S
SYLVANIA       NOT AVBL
CLAXTON        NOT AVBL

...CSRA...CENTRAL AND FAR SOUTHEAST GEORGIA...

CITY           SKY/WX    TMP DP  RH WIND       PRES   REMARKS
THOMSON        PTSUNNY   79  74  83 N3        30.17S
AUGUSTA-BUSH   MOSUNNY   84  71  65 E8        30.11R
AUGUSTA-DANIEL MOSUNNY   80  69  69 NE10      30.13R
SWAINSBORO     FAIR      77  70  78 NE5       30.13R
VIDALIA        PTSUNNY   82  70  65 E8        30.10R
EASTMAN        FAIR      84  73  70 E7        30.12S HX  91
HAZLEHURST     FAIR      85  74  69 E6        30.08R HX  93
ALMA           SUNNY     83  75  77 E9        30.08R HX  90
WAYCROSS       CLOUDY    87  81  83 E8        30.07S HX 104
JESUP          PTSUNNY   86  79  79 E8        30.08R HX  99
BAXLEY         FAIR      86  75  70 NE7       30.07S HX  95
BRUNSWICK      MOSUNNY   82  73  74 NE10      30.08R
SAINT SIMONS   MOSUNNY   84  75  74 NE10      30.06R HX  92

$$

SCZ027-028-034-036>038-045-046-048>050-GAZ119-141-051600-
...LAKE AND SUPPLEMENTAL COASTAL OBSERVATIONS...

STATION/POSITION TIME  TEMP    WIND        PRES    WAVE   SWELL
                       AIR SEA DIR/SP/G            HT/PER HT/PER/DIR
                 (UTC) (F)     (DEG/KT/KT) (MB)    (FT/S) (FT/S/D)
UPR LAKE MARION  NOT AVBL
WINYAH BAY       NOT AVBL
LAKE MURRAY      1400   75      40/  1/  4 1019.3F
ACE BASIN NERRS  NOT AVBL
FORT PULASKI     1400   79 83   30/  8/ 12 1018.7R
SAPELO ISLAND    1400   81      30/  7     1018.0R

$$

ANZ835-935-AMZ111-154-330-350-352-354-370-450-454-472-051600-
...C-MAN AND BUOY OBSERVATIONS...

STATION/POSITION TIME  TEMP    WIND        PRES    WAVE   SWELL
                       AIR SEA DIR/SP/G            HT/PER HT/PER/DIR
                 (UTC) (F)     (DEG/KT/KT) (MB)    (FT/S) (FT/S/D)
BUOY 41004       1450   82 84   30/ 12/ 14 1017.4R   2/ 4
BUOY 41008       1450   82 84   50/ 10/ 14 1018.2R   2/ 3
FOLLY BEACH CMAN 1400   78     360/  5/  6 1018.1R
CAPERS NEARSHORE 1408   77      10/ 10/ 14 1018.3R
FRIPP NEARSHORE  NOT AVBL


STATION/POSITION TIME  TEMP    WIND        PRES    WAVE   SWELL
                       AIR SEA DIR/SP/G            HT/PER HT/PER/DIR
                 (UTC) (F)     (DEG/KT/KT) (MB)    (FT/S) (FT/S/D)
5E ST. MARYS GA  1421      85                N/A     1/10
FRYING PAN BUOY  1450   81 82   40/ 16/ 19 1017.9R   4/ 4
BUOY 41025       1450   81 84   30/ 16/ 17 1017.5S   3/ 6   2/ 50/ 7
CAPE LOOKOUT NC  1400   79      20/ 13/ 17 1017.5R
BUOY 41002       1450   82 84   70/  6/  8 1015.9R   2/ 9   2/110/ 9
BUOY 41010       1420   83 85   50/  8/ 10 1016.2R
ST AUGUSTINE FL  1500   77 84  260/  6/  7 1018.4R


$$



USA.gov is the U.S. government's official web portal to all federal, state and local government web resources and services.